DW5677 Weather Reports


time (UTC)temp
C
wind
direction
speed
KPH
gust
KPH
rain 1hr
cm
rain 24hr
cm
rain mn
cm
humidity
%
barometer
mb
20260906103034 20 0 1.6 9.7 0.00 0.00 0.00 91 1017.3
20260906101537 20 87 4.8 8.0 0.00 0.00 0.00 91 1017.4
20260906100033 20 0 1.6 6.4 0.00 0.00 0.00 91 1017.2
20260906094540 20 0 0.0 6.4 0.00 0.00 0.00 90 1017.2
20260906093038 20 0 0.0 0.0 0.00 0.00 0.00 90 1017.1
20260906091536 20 15 0.0 4.8 0.00 0.00 0.00 90 1017.1
20260906090036 21 0 1.6 4.8 0.00 0.00 0.00 89 1017.1
20260906084545 21 15 1.6 6.4 0.00 0.00 0.00 89 1017.1
20260906083036 21 15 1.6 6.4 0.00 0.00 0.00 89 1017.2
20260906081533 21 0 0.0 0.0 0.00 0.00 0.00 90 1017.1
20260906080035 21 0 0.0 4.8 0.00 0.00 0.00 90 1017.1
20260906074536 21 15 1.6 4.8 0.00 0.00 0.00 89 1016.9
20260906073039 21 15 3.2 8.0 0.00 0.00 0.00 89 1016.8
20260906071541 21 15 1.6 4.8 0.00 0.00 0.00 89 1017.0
20260906070035 21 0 0.0 6.4 0.00 0.00 0.00 89 1017.1
20260906064533 21 15 3.2 8.0 0.00 0.00 0.00 89 1017.1
20260906063035 21 15 0.0 8.0 0.00 0.00 0.00 89 1017.0
20260906061536 21 16 0.0 6.4 0.00 0.00 0.00 89 1017.0
20260906060037 21 16 0.0 8.0 0.00 0.00 0.00 88 1016.7
20260906054534 21 0 1.6 6.4 0.00 0.00 0.00 88 1016.5
20260906053033 21 47 1.6 8.0 0.00 0.00 0.00 87 1016.3
20260906051534 22 104 1.6 11.3 0.00 0.00 0.00 86 1016.2
20260906050035 22 147 3.2 17.7 0.00 0.00 0.00 85 1016.3
20260906044533 22 79 3.2 14.5 0.00 0.00 0.00 85 1016.2
20260906043033 22 341 6.4 14.5 0.00 0.00 0.00 86 1016.1
20260906041531 22 106 3.2 14.5 0.00 0.00 0.00 87 1015.9
20260906040037 22 30 3.2 14.5 0.00 0.00 0.00 88 1015.8
20260906034542 22 349 4.8 14.5 0.00 0.00 0.00 89 1015.8
20260906033032 22 323 1.6 8.0 0.00 0.00 0.00 90 1015.7
20260906031531 22 39 0.0 9.7 0.00 0.00 0.00 90 1015.5
20260906030036 22 350 4.8 14.5 0.00 0.00 0.00 89 1015.5
20260906024534 22 342 4.8 9.7 0.00 0.00 0.00 89 1015.7
20260906023033 22 333 6.4 17.7 0.00 0.00 0.00 89 1015.8
20260906021538 22 321 8.0 16.1 0.00 0.00 0.00 88 1015.7
20260906020044 22 323 8.0 14.5 0.00 0.00 0.00 88 1015.8
20260906014549 22 352 4.8 16.1 0.00 0.00 0.00 87 1015.4
20260906013033 22 5 9.7 20.9 0.00 0.00 0.00 87 1015.1
20260906011540 22 311 6.4 17.7 0.00 0.00 0.00 86 1014.9
20260906010035 22 341 6.4 20.9 0.00 0.00 0.00 86 1015.0
20260906004538 22 329 6.4 19.3 0.00 0.00 0.00 86 1014.9
20260906003048 23 360 8.0 20.9 0.00 0.00 0.00 86 1014.7
20260906001535 23 327 12.9 22.5 0.00 0.00 0.00 85 1014.5
20260906000036 23 340 9.7 22.5 0.00 0.00 0.00 84 1014.3
20260905234535 23 349 9.7 20.9 0.00 0.00 0.00 84 1014.4
20260905233035 23 352 8.0 24.1 0.00 0.00 0.00 84 1014.5
20260905231539 23 352 11.3 22.5 0.00 0.00 0.00 83 1014.3
20260905230035 24 343 9.7 22.5 0.00 0.00 0.00 83 1014.3
20260905224534 24 319 9.7 27.4 0.00 0.00 0.00 82 1014.3
20260905223032 25 311 9.7 25.7 0.00 0.00 0.00 81 1014.1
20260905221537 25 348 16.1 29.0 0.00 0.00 0.00 80 1014.2
20260905220041 25 331 14.5 29.0 0.00 0.00 0.00 80 1014.2
20260905214535 25 321 12.9 25.7 0.00 0.00 0.00 79 1014.1
20260905213040 25 311 14.5 25.7 0.00 0.00 0.00 79 1013.9
20260905211539 26 319 14.5 33.8 0.00 0.00 0.00 79 1013.8
20260905210031 26 347 16.1 25.7 0.00 0.00 0.00 77 1013.8
20260905204533 27 325 9.7 27.4 0.00 0.00 0.00 76 1013.8
20260905203034 27 23 16.1 27.4 0.00 0.00 0.00 77 1013.9
20260905201538 28 334 9.7 24.1 0.00 0.00 0.00 75 1013.9
20260905200050 28 326 9.7 25.7 0.00 0.00 0.00 74 1014.0
20260905194541 28 17 11.3 24.1 0.00 0.00 0.00 73 1013.8
20260905193034 28 333 16.1 25.7 0.00 0.00 0.00 72 1013.9
20260905191534 28 339 9.7 20.9 0.00 0.00 0.00 73 1013.9
20260905190036 29 339 11.3 22.5 0.00 0.00 0.00 72 1013.9
20260905184535 29 325 8.0 22.5 0.00 0.00 0.00 71 1013.8
20260905183034 30 17 11.3 24.1 0.00 0.00 0.00 71 1013.9
20260905181538 30 314 9.7 22.5 0.00 0.00 0.00 70 1013.9
20260905180034 30 352 12.9 22.5 0.00 0.00 0.00 73 1013.9
20260905174535 30 56 8.0 22.5 0.00 0.00 0.00 74 1013.8
20260905173033 30 311 8.0 17.7 0.00 0.00 0.00 74 1013.8
20260905171533 29 305 6.4 19.3 0.00 0.00 0.00 77 1014.0
20260905170043 29 352 6.4 17.7 0.00 0.00 0.00 80 1014.1
20260905164535 28 30 4.8 14.5 0.00 0.00 0.00 82 1014.3
20260905163037 27 305 6.4 16.1 0.00 0.00 0.00 83 1014.3
20260905161535 27 327 6.4 17.7 0.00 0.00 0.00 83 1014.4
20260905160044 27 333 9.7 17.7 0.00 0.00 0.00 84 1014.3
20260905154533 27 21 8.0 17.7 0.00 0.00 0.00 84 1014.2
20260905153038 28 325 4.8 16.1 0.00 0.00 0.00 84 1014.1
20260905151536 28 65 4.8 17.7 0.00 0.00 0.00 84 1014.0
20260905150036 28 336 4.8 11.3 0.00 0.00 0.00 84 1013.8
20260905144541 28 348 4.8 12.9 0.00 0.00 0.00 87 1013.6
20260905143048 27 352 3.2 8.0 0.00 0.00 0.00 90 1013.4
20260905141536 26 0 3.2 6.4 0.00 0.00 0.00 93 1013.5
20260905140035 26 0 0.0 0.0 0.00 0.00 0.00 95 1013.8
20260905134534 25 0 0.0 0.0 0.00 0.00 0.00 95 1013.6
20260905133033 25 0 0.0 4.8 0.00 0.00 0.00 95 1013.5
20260905131546 25 0 0.0 0.0 0.00 0.00 0.00 95 1013.4
20260905130034 25 0 0.0 0.0 0.00 0.00 0.00 95 1013.2
20260905124536 24 0 0.0 0.0 0.00 0.00 0.00 95 1013.2
20260905123037 23 0 0.0 0.0 0.00 0.00 0.00 95 1013.0
20260905121531 23 0 0.0 0.0 0.00 0.00 0.00 95 1012.9
20260905120034 23 0 0.0 4.8 0.00 0.00 0.00 94 1012.8
20260905114542 23 0 0.0 0.0 0.00 0.00 0.00 94 1012.7
20260905113038 23 0 0.0 0.0 0.00 0.00 0.00 94 1012.5
20260905111533 23 0 0.0 0.0 0.00 0.00 0.00 94 1012.5
20260905110035 23 0 0.0 0.0 0.00 0.00 0.00 93 1012.4
20260905104532 23 0 0.0 0.0 0.00 0.00 0.00 94 1012.4